Location: Newark
(30.2328°N, 54.2869°E)
Time: 07:26:19
(UTC+00:00)

Hubble Space Telescope - Visible Passes

Search period start: 22 July 2019 00:00
Search period end: 01 August 2019 00:00
Orbit: 536 x 540 km, 28.5° (Epoch: 22 July)

Date Brightness Start Highest point End Pass type
(mag) Time Alt. Az. Time Alt. Az. Time Alt. Az.
25 Jul 2.5 01:05:38 10° SSW 01:08:50 22° SSE 01:12:02 10° ESE visible
26 Jul 2.2 00:54:45 10° SW 00:58:14 26° SSE 01:01:43 10° ESE visible
27 Jul 1.9 00:44:44 14° SW 00:47:38 32° SSE 00:51:21 10° E visible
28 Jul 1.6 00:34:43 20° SW 00:37:03 38° SSE 00:40:54 10° E visible
29 Jul 1.3 00:24:41 27° SW 00:26:29 44° SSE 00:30:26 10° E visible
30 Jul 1.1 00:14:39 36° SW 00:15:55 51° S 00:19:56 10° E visible
31 Jul 0.9 00:04:38 48° SW 00:05:22 57° S 00:09:27 10° E visible
31 Jul 0.7 23:54:38 62° S 23:54:50 63° S 23:58:55 10° E visible
